Madison, WI

4:25 PM CDT on May 24, 2018 (GMT -0500)
Dane County Regional-Truax

Weather History for KMSN - February, 2014

Change the Weather History Date:

Wednesday, February 12, 2014

  Actual Average Record
Temperature  
Mean Temperature 10 °F 22 °F  
Max Temperature 19 °F 30 °F 63 °F (1882)
Min Temperature 1 °F 14 °F -23 °F (1899)
Degree Days  
Heating Degree Days 55 43  
Month to date heating degree days 716 530  
Since 1 July heating degree days 5358 4843  
Cooling Degree Days 0 0  
Month to date cooling degree days 0 0  
Year to date cooling degree days 0 0  
Moisture  
Dew Point 5 °F    
Average Humidity 75    
Maximum Humidity 88    
Minimum Humidity 62    
Precipitation  
Precipitation 0.05 in 0.05 in 0.71 in (1938)
Month to date precipitation 0.30 0.55  
Year to date precipitation 0.95 1.78  
Snow  
Snow 0.80 in 0.40 in 4.90 in (1923)
Month to date snowfall 5.2 4.8  
Since 1 July snowfall 43.2 35.3  
Snow Depth 8.00 in    
Sea Level Pressure  
Sea Level Pressure 30.15 in    
Wind  
Wind Speed 6 mph (South)    
Max Wind Speed 13 mph    
Max Gust Speed 17 mph    
Visibility 6 miles    
Events Snow    
T = Trace of Precipitation, MM = Missing Value Source: NWS Daily Summary

Daily Weather History Graph

Daily Weather History Graph

Search for Another Location

Airport or City:

Astronomy

Feb. 12, 2014 Rise Set
Actual Time 6:59 AM CST 5:24 PM CST
Civil Twilight 6:29 AM CST 5:53 PM CST
Nautical Twilight 5:56 AM CST 6:27 PM CST
Astronomical Twilight 5:23 AM CST 7:00 PM CST
Moon 3:37 PM CST (2/12) 5:17 AM CST (2/12)
Length of Visible Light 11h 24m
Length of Day
10h 25m
Waxing Gibbous, 95% of the Moon is Illuminated
Feb 12
Waxing Gibbous
Feb 14
Full
Feb 22
Last Quarter
Mar 1
New
Mar 8
First Quarter

Hourly Weather History & Observations

Time (CST) Temp. Windchill Dew Point Humidity Pressure Visibility Wind Dir Wind Speed Gust Speed Precip Events Conditions
12:53 AM 1.9 °F -12.9 °F -7.1 °F 66% 30.33 in 10.0 mi South 9.2 mph - N/A   Mostly Cloudy
1:53 AM 3.0 °F -11.5 °F -7.1 °F 63% 30.32 in 10.0 mi South 9.2 mph - N/A   Clear
2:53 AM 3.0 °F -11.5 °F -6.0 °F 66% 30.29 in 10.0 mi South 9.2 mph - N/A   Overcast
3:53 AM 3.9 °F -9.4 °F -5.1 °F 66% 30.27 in 10.0 mi South 8.1 mph - N/A   Overcast
4:53 AM 5.0 °F -8.1 °F -2.9 °F 70% 30.27 in 10.0 mi South 8.1 mph - N/A   Overcast
5:53 AM 6.1 °F -7.8 °F -2.0 °F 69% 30.26 in 10.0 mi South 9.2 mph - N/A   Overcast
6:53 AM 7.0 °F -4.5 °F -2.0 °F 67% 30.24 in 10.0 mi South 6.9 mph - N/A   Overcast
7:53 AM 8.1 °F -6.2 °F -0.9 °F 67% 30.23 in 10.0 mi South 10.4 mph - N/A   Overcast
8:37 AM 8.1 °F -6.2 °F 1.0 °F 73% 30.17 in 2.0 mi South 10.4 mph - 0.00 in Snow Light Snow
8:53 AM 8.1 °F -4.3 °F 1.9 °F 76% 30.23 in 2.0 mi South 8.1 mph - 0.00 in Snow Light Snow
9:12 AM 9.0 °F -3.2 °F 3.0 °F 77% 30.16 in 1.8 mi South 8.1 mph - 0.00 in Snow Light Snow
9:32 AM 10.0 °F 0.4 °F 3.9 °F 76% 30.16 in 1.2 mi South 5.8 mph - 0.01 in Snow Light Snow
9:53 AM 10.0 °F -2.9 °F 5.0 °F 80% 30.22 in 1.0 mi South 9.2 mph - 0.02 in Snow Light Snow
10:29 AM 10.9 °F -0.8 °F 6.1 °F 81% 30.16 in 2.0 mi South 8.1 mph - 0.01 in Snow Light Snow
10:53 AM 12.0 °F -0.4 °F 6.1 °F 77% 30.22 in 2.0 mi South 9.2 mph - 0.01 in Snow Light Snow
11:30 AM 12.9 °F 0.7 °F 7.0 °F 77% 30.14 in 1.5 mi South 9.2 mph - 0.01 in Snow Light Snow
11:49 AM 12.2 °F -0.2 °F 8.6 °F 85% 30.13 in 2.0 mi South 9.2 mph - 0.01 in Snow Light Snow
11:53 AM 12.9 °F 0.7 °F 8.1 °F 81% 30.19 in 2.0 mi South 9.2 mph - 0.01 in Snow Light Snow
12:46 PM 15.1 °F 5.2 °F 9.0 °F 77% 30.11 in 1.8 mi SSW 6.9 mph - 0.01 in Snow Light Snow
12:53 PM 15.1 °F 6.4 °F 10.0 °F 80% 30.16 in 2.0 mi South 5.8 mph - 0.01 in Snow Light Snow
1:31 PM 16.0 °F 7.4 °F 10.0 °F 77% 30.08 in 4.0 mi South 5.8 mph - 0.00 in Snow Light Snow
1:39 PM 16.0 °F 6.3 °F 10.0 °F 77% 30.08 in 1.8 mi South 6.9 mph - 0.00 in Snow Light Snow
1:53 PM 16.0 °F 5.3 °F 10.9 °F 81% 30.13 in 2.0 mi South 8.1 mph - 0.00 in Snow Light Snow
2:08 PM 17.1 °F - 10.9 °F 77% 30.06 in 5.0 mi Calm Calm - 0.00 in Snow Light Snow
2:53 PM 18.0 °F - 10.9 °F 74% 30.11 in 10.0 mi Calm Calm - 0.00 in   Overcast
3:53 PM 18.0 °F 11.1 °F 10.9 °F 74% 30.10 in 10.0 mi WSW 4.6 mph - N/A   Overcast
4:53 PM 18.0 °F 12.7 °F 12.0 °F 78% 30.10 in 10.0 mi South 3.5 mph - N/A   Overcast
5:53 PM 18.0 °F - 10.9 °F 74% 30.10 in 10.0 mi Calm Calm - N/A   Overcast
6:53 PM 16.0 °F 5.3 °F 10.9 °F 81% 30.06 in 8.0 mi South 8.1 mph - N/A   Clear
7:53 PM 12.9 °F - 9.0 °F 84% 30.06 in 7.0 mi Calm Calm - N/A   Clear
8:53 PM 7.0 °F - 3.0 °F 84% 30.06 in 4.0 mi Calm Calm - N/A   Clear
9:20 PM 7.0 °F - 3.9 °F 87% 30.00 in 4.0 mi Calm Calm - N/A   Mostly Cloudy
9:53 PM 10.0 °F - 7.0 °F 87% 30.06 in 5.0 mi Calm Calm - N/A   Overcast
10:53 PM 12.9 °F - 9.0 °F 84% 30.05 in 6.0 mi Calm Calm - N/A   Overcast
11:53 PM 15.1 °F 9.4 °F 10.0 °F 80% 30.00 in 8.0 mi SSE 3.5 mph - N/A   Overcast